Location: *
(40.7873°S, 98.7174°E)
Time: 00:45:13
(UTC+00:00)

ARIANE 6 FM1 Upper Stage - Pass Details

Date: 20 December 2025
Orbit: 522 x 610 km, 62.0° (Epoch: 20 January)

Event Time Altitude Azimuth Distance (km) Brightness Sun altitude
Rises 18:49:58 0° 223° (SW) 2,902 6.6 -22.7°
Reaches altitude 10° 18:52:21 10° 229° (SW) 1,983 5.7 -22.5°
Enters shadow 18:55:31 36° 263° (W) 979 3.7 -22.3°
